Home > Weather > Boise > Past weeks

Flag for USA Weather for the Past 2 Weeks in Boise, Idaho, USA

Now
72 °F

Sunny.


Feels Like: 77 °F
Forecast: 57 / 78 °F
Wind: 6 mph from North

Location: Boise Air Terminal

Current Time: May 6, 2016 at 4:43:04 PM

Latest Report: May 6, 2016 at 3:53 PM


Visibility: 10 mi

Pressure: 29.73 "Hg (27.03 "Hg at 822m altitude)

Humidity: 48%

Dew Point: 51 °F

Location of BoiseLocation

Historic Weather in Boise — Graph

°F

Boise Temperature Yesterday

Maximum temperature yesterday: 77 °F (at 3:53 PM)
Minimum temperature yesterday: 56 °F (at 6:53 AM)
Average temperature yesterday: 66 °F

High & Low Weather Summary for the Past Weeks

 TemperatureHumidityPressure
High85 °F (Apr 21, 5:53 PM)100% (Apr 23, 6:00 AM)30.15 "Hg (Apr 23, 6:00 AM)
Low40 °F (Apr 24, 6:53 AM)13% (Apr 21, 5:53 PM)29.54 "Hg (Apr 22, 3:53 PM)
Average59 °F49%29.85 "Hg
* Reported Apr 21 2:53 PM — May 6 2:53 PM, Boise, Weather by CustomWeather, © 2016

Note: Actual official high and low records may vary slightly from our data, if they occured in-between our weather recording intervals... More about our weather records

Advertising

Boise Weather History for the Previous 24 Hours

Scroll right to see more
 ConditionsComfort  
Time TempWeatherWind HumidityBarometerVisibility
2:53 PM
Fri, May 6
71 °FSunny.6 mph51%29.75 "Hg10 mi
1:53 PM70 °FSunny.6 mph51%29.77 "Hg10 mi
12:53 PM67 °FSunny.3 mph57%29.76 "Hg10 mi
11:53 AM63 °FSunny.6 mph63%29.79 "Hg10 mi
10:53 AM60 °FSunny.No wind69%29.79 "Hg10 mi
9:53 AM59 °FSunny.5 mph75%29.76 "Hg10 mi
8:53 AM57 °FScattered clouds.No wind78%29.79 "Hg10 mi
7:53 AM56 °FClear.5 mph81%29.77 "Hg10 mi
6:53 AM56 °FOvercast.3 mph81%29.78 "Hg10 mi
5:53 AM56 °FOvercast.No wind81%29.77 "Hg10 mi
4:53 AM57 °FPassing clouds.9 mph74%29.75 "Hg10 mi
3:53 AM58 °FClear.8 mph70%29.76 "Hg10 mi
2:53 AM58 °FClear.3 mph70%29.76 "Hg10 mi
1:53 AM58 °FClear.8 mph72%29.73 "Hg10 mi
12:53 AM60 °FClear.12 mph65%29.73 "Hg10 mi
11:53 PM
Thu, May 5
62 °FClear.10 mph54%29.73 "Hg10 mi
10:53 PM65 °FClear.10 mph47%29.74 "Hg10 mi
9:53 PM66 °FSunny.14 mph47%29.73 "Hg10 mi
8:53 PM69 °FSunny.16 mph45%29.71 "Hg10 mi
7:53 PM72 °FSunny.15 mph38%29.67 "Hg10 mi
6:53 PM74 °FSunny.15 mph37%29.64 "Hg10 mi
5:53 PM76 °FPassing clouds.12 mph35%29.64 "Hg10 mi
4:53 PM76 °FSunny.8 mph33%29.63 "Hg10 mi
Weather by CustomWeather, © 2016

See weather overviewHow to use our weather pages